Regional Weather Roundup
Issued by NWS

Home | Current Version | Previous Version | Text Only | Print | Product List | Glossary Off
Versions: 1 2 3 4 5 6 7 8 9 10 11 12 13 14 15 16 17 18 19 20 21 22 23 24 25 26 27

000
ASUS45 KCYS 061010
RWRWY

WYOMING REGIONAL WEATHER ROUNDUP
NATIONAL WEATHER SERVICE CHEYENNE WY
300 AM MST TUE DEC 06 2016

NOTE:  "FAIR" INDICATES FEW OR NO CLOUDS BELOW 12,000 FEET
WITH NO SIGNIFICANT WEATHER AND/OR OBSTRUCTIONS TO VISIBILITY.

WYZ001-061100-
YELLOWSTONE NATIONAL PARK

CITY           SKY/WX    TMP DP  RH WIND       PRES   REMARKS
LK YELLOWSTONE   N/A     -1  -4  87 CALM      29.81S
W YELLOWSTONE  NOT AVBL

$$
WYZ002>013-054>058-071-098>099-061100-
NORTHERN WYOMING

CITY           SKY/WX    TMP DP  RH WIND       PRES   REMARKS
JACKSON        FAIR     -15 -18  84 N9        29.91S WCI -33
CODY           FAIR       4   1  88 S3        29.94R
GREYBULL       FAIR      10   4  76 W6        29.99R WCI   0
WORLAND        FAIR       4   0  83 CALM      29.96R
SHERIDAN       LGT SNOW  12   8  84 VRB3      29.99S FOG
BUFFALO        FAIR       5  -3  69 W6        29.92S WCI  -6
GILLETTE       FAIR      -2  -5  87 NW6       29.95S WCI -14
HULETT         CLOUDY     9   1  72 MISG      29.96S
NEWCASTLE      FAIR       5   0  78 N9        29.95F WCI  -9

$$
WYZ014>020-022>026-101>103-061100-
CENTRAL WYOMING

CITY           SKY/WX    TMP DP  RH WIND       PRES   REMARKS
BIG PINEY      FAIR     -14 -19  79 CALM      29.90S
PINEDALE       FAIR     -18 -24  76 NW14      29.90F WCI -42
DUBOIS         FAIR      -4 -11  71 MISG      29.80S
LANDER         FAIR       2 -10  57 NW7       29.89S WCI -11
RIVERTON       FAIR       6  -7  54 W5        29.90S WCI  -3
CASPER         FAIR      -3  -6  87 W10       29.91F WCI -20
DOUGLAS        FAIR       0  -4  83 NW6       29.93F WCI -12

$$
WYZ021-027>030-104>119-061100-
SOUTHERN WYOMING

CITY           SKY/WX    TMP DP  RH WIND       PRES   REMARKS
EVANSTON       FAIR       2 -17  41 SE5       29.85F WCI  -8
KEMMERER         N/A    -11 -17  77 N9        29.85F WCI -29
FORT BRIDGER   FAIR       1 -15  47 SE7       29.90S WCI -11
ROCK SPRINGS   FAIR       2  -9  60 CALM      29.89F
DIXON          FAIR      -1 -11  63 E5        29.97S WCI -11
RAWLINS        FAIR       5  -9  52 W8        29.88F WCI  -8
SARATOGA       FAIR      -2  -9  71 CALM      29.89S
LARAMIE        FAIR      -4 -12  68 E7        29.84F WCI -18
CHEYENNE       FAIR       8  -9  45 W22       29.86F WCI -12
TORRINGTON     NOT AVBL
PINE BLUFFS    FAIR      10   1  67 NW8       29.95S WCI  -1

$$




USA.gov is the U.S. government's official web portal to all federal, state and local government web resources and services.